Regional Weather Roundup
Issued by NWS Little Rock, AR

Home | Current Version | Previous Version | Text Only | Print | Product List | Glossary On
Versions: 1 2 3 4 5 6 7 8 9 10 11 12 13 14 15 16 17 18 19 20 21 22 23 24 25 26 27 28 29 30 31
000
ASUS44 KLZK 230905
RWRLZK

WEATHER ROUNDUP FOR ARKANSAS
NATIONAL WEATHER SERVICE LITTLE ROCK AR
400 AM CDT SUN JUL 23 2017

NOTE: "FAIR" INDICATES FEW OR NO CLOUDS BELOW 12,000 FEET WITH NO
SIGNIFICANT WEATHER AND/OR OBSTRUCTIONS TO VISIBILITY.

ARZ001-003-010-029-231000-
NORTHWEST ARKANSAS

CITY           SKY/WX    TMP DP  RH WIND       PRES   REMARKS
FAYETTEVILLE   CLEAR     72  72 100 CALM      29.93R
FORT SMITH     CLEAR     79  74  84 CALM      29.86F
HARRISON       CLOUDY    76  71  85 NW7       29.92R
BENTONVILLE    PTCLDY    79  70  73 CALM      29.95R
ROGERS         PTCLDY    76  71  85 NW6       29.95R
SILOAM SPGS    PTCLDY    75  70  83 N13       29.95R
HIGHFILL       PTCLDY    78  72  81 NW5G20    29.94R
$$

ARZ004-005-016-231000-
NORTH CENTRAL ARKANSAS

CITY           SKY/WX    TMP DP  RH WIND       PRES   REMARKS
BATESVILLE     CLEAR     81  73  78 S6        29.88S HX  85
FLIPPIN        CLOUDY    75  68  78 CALM      29.87R
MTN HOME       CLOUDY    77  72  84 CALM      29.90R
$$

ARZ040-041-231000-
WEST CENTRAL ARKANSAS

CITY           SKY/WX    TMP DP  RH WIND       PRES   REMARKS
MENA           CLEAR     81  79  94 CALM      29.93R HX  89
MOUNT IDA      CLEAR     75  72  90 CALM      29.88S
$$

ARZ009-017-025-026-028-231000-
NORTHEAST ARKANSAS

CITY           SKY/WX    TMP DP  RH WIND       PRES   REMARKS
JONESBORO      CLEAR     81  78  91 SW10      29.86R HX  89
WALNUT RIDGE   CLEAR     79  73  83 S9        29.86R
BLYTHEVILLE    CLEAR     80  77  90 SW9       29.86S HX  87
$$

ARZ022-023-033-042-044-231000-
CENTRAL ARKANSAS

CITY           SKY/WX    TMP DP  RH WIND       PRES   REMARKS
LITTLE ROCK    PTCLDY    77  76  96 SW7       29.89R
N LITTLE ROCK    N/A     78  74  86 SW6       29.87R
JACKSONVILLE   CLEAR     79  76  90 S6        29.88R
CONWAY           N/A     81  75  83 CALM      29.87R HX  86
SEARCY         PTCLDY    76  76 100 S5        29.90R FOG
HOT SPRINGS    CLEAR     79  76  90 CALM      29.90S
RUSSELLVILLE   CLEAR     75  74  96 CALM      29.88R
CLINTON        MOCLDY    73  73 100 CALM      29.89S FOG
$$

ARZ036-231000-
EAST ARKANSAS

CITY           SKY/WX    TMP DP  RH WIND       PRES   REMARKS
WEST MEMPHIS   CLEAR     76  75  97 S5        29.88R
$$

ARZ050-053-066-070-073-231000-
SOUTHWEST ARKANSAS

CITY           SKY/WX    TMP DP  RH WIND       PRES   REMARKS
ARKADELPHIA    FAIR      75  74  96 CALM      29.90S
CAMDEN         CLEAR     75  72  88 CALM      29.89F
TEXARKANA      CLEAR     78  75  90 SW8       29.89F
EL DORADO      CLEAR     75  73  93 S5        29.91S
DE QUEEN       CLEAR     76  76 100 CALM      29.87S FOG
$$

ARZ056-057-069-231000-
SOUTHEAST ARKANSAS

CITY           SKY/WX    TMP DP  RH WIND       PRES   REMARKS
PINE BLUFF     CLEAR     75  72  90 SW6       29.90R
STUTTGART      PTCLDY    75  63  64 S5        29.90S
MONTICELLO     PTCLDY    76  72  87 SW7       29.91S

$$






USA.gov is the U.S. government's official web portal to all federal, state and local government web resources and services.